Dewpoint
4 3 3 3 2 3 1 1 0 -1 1 -0 1 1 1 -0 -1 -1 -1 -1 -1 -0 -2 1 1 3 5 6 5 7 8 6 -3 6 9 8 7 7 5 5 4 4 3 4 3 3 3
4 3 3 2 2 2 1 0 -1 -1 -1 0 -0 0 0 -2 -2 -2 -3 -2 -2 -1 -1 1 1 2 4 5 3 4 6 7 1 7 9 8 7 6 5 4 4 3 3 3 3 2 2
2 2 2 2 2 1 0 0 0 -1 -1 1 -1 -0 -2 -0 -1 -2 -2 -2 -2 1 1 1 1 1 4 5 4 2 4 6 3 7 8 8 7 5 4 4 4 2 3 3 3 3 3
2 2 2 2 2 1 -0 0 1 -1 -1 -2 0 -2 0 0 -1 -2 -2 -2 -2 -1 -0 -1 -1 3 5 4 3 3 5 7 7 7 7 7 7 6 4 4 4 4 4 6 3 3 3
2 2 2 2 1 0 -0 -1 -1 -1 -1 0 -1 -1 1 0 -1 -0 -1 -1 -1 -1 -1 -1 1 2 5 4 4 4 6 7 7 6 6 6 6 6 5 4 5 4 6 6 4 2 2
2 2 1 1 2 -0 -0 0 -0 -1 -2 0 -0 0 -0 -1 -1 -0 -0 -1 -4 -4 -4 -2 -1 3 4 4 3 3 5 7 7 7 7 6 6 6 5 5 6 6 6 5 5 1 3
2 2 1 1 1 -0 1 -0 -0 0 -0 -0 -0 1 -0 -1 -1 -0 -0 -1 -2 0 -0 -3 1 3 4 4 4 3 5 7 8 7 7 7 8 7 6 5 3 4 5 5 3 1 1
1 1 1 -0 1 1 1 0 -0 1 1 0 -0 -0 -0 -1 -1 1 -0 -2 -2 -1 -1 -4 1 2 4 3 4 4 3 6 7 8 6 7 8 5 5 4 5 5 6 6 3 1 0
0 1 1 0 1 1 1 -0 -0 1 1 1 1 1 0 -1 -0 1 0 -2 -2 -0 0 1 2 4 4 2 4 4 4 6 6 7 7 7 7 6 6 6 7 4 5 4 4 1 -1
0 1 0 -0 0 1 0 -1 0 1 1 1 1 0 0 0 -0 0 0 -2 -1 0 -2 3 3 5 4 3 3 3 5 5 6 7 5 6 6 7 7 7 5 7 1 2 1 2 4
-2 1 -0 -1 0 0 0 0 1 1 1 -1 -0 -0 0 -1 -0 1 -0 -1 -0 1 1 3 3 4 4 2 3 4 4 4 5 6 6 6 7 7 8 6 5 5 0 1 1 1 1
-0 1 -1 -1 -0 -1 0 0 -0 1 0 0 -1 -1 -1 -2 -1 -0 1 0 0 -1 4 4 4 5 3 3 4 4 4 4 3 4 3 4 4 5 5 4 3 0 -0 -0 1 1 1
1 -0 -1 -1 0 0 0 1 0 -1 0 0 -1 -0 -1 -1 -0 -0 0 0 0 2 3 5 5 3 3 5 4 4 5 5 6 7 7 5 3 -0 0 2 -0 -0 1 2 0 -1 2
-1 -0 -2 -3 -5 -0 -1 -0 -0 -3 -1 -1 0 0 -0 0 1 1 2 -1 1 5 6 4 3 3 5 4 5 5 5 5 2 5 6 5 7 2 -0 1 2 1 1 2 1 1 2
-0 -1 -1 -6 -29 -7 -9 -1 -2 -4 -3 -1 -0 -0 1 1 1 2 2 2 3 4 5 5 3 5 5 4 5 5 4 4 2 1 3 2 3 1 0 0 0 2 2 -1 1 -0 -0
-1 -0 -3 -3 -29 -23 -14 -2 -3 -3 -4 -4 -4 -2 0 1 1 2 1 4 4 3 1 1 4 3 5 4 4 5 3 2 2 0 -1 1 3 2 1 -0 -0 0 -0 1 -1 -2 1
-4 1 -10 -3 -16 -29 -17 -5 -2 -4 -4 -4 -3 -2 1 -0 0 0 3 3 4 3 2 1 2 2 3 3 3 4 3 1 -0 0 -1 -0 1 4 1 2 2 2 2 1 -0 -0 -0
-14 1 -2 -18 -10 -26 -28 -12 -1 -4 -5 -5 -1 -0 1 1 1 2 4 3 2 3 2 -1 -1 0 1 1 1 1 3 0 -1 -1 1 -0 1 3 2 0 -0 0 1 -0 0 -0 1
-15 -3 -1 -15 -17 -18 -29 -22 -4 -1 -3 -3 -3 -1 1 0 4 4 3 3 2 3 2 -1 -1 -1 -0 0 1 -0 0 -1 -1 -1 0 -0 0 1 2 0 0 2 1 -0 -1 -1 -1
-13 -9 -1 -11 -14 -18 -26 -30 -14 -2 -2 -2 -1 -0 0 1 2 2 3 3 3 2 -0 -1 -1 -1 -1 0 -0 1 1 1 -0 -1 -1 -1 -0 -0 1 -0 1 2 2 1 0 1 1
-9 -9 -0 -6 -9 -15 -25 -29 -26 -3 -1 -1 1 1 1 1 1 0 1 2 3 3 1 -1 -1 -1 -0 2 2 2 2 1 1 1 0 -0 1 0 1 0 1 1 2 2 1 1 1
-4 -8 -2 -1 -4 -9 -21 -27 -28 -9 -1 -1 1 1 2 1 0 -0 -0 1 3 2 2 1 -0 0 2 2 1 3 1 1 1 0 1 -0 2 2 1 2 2 2 2 1 2 1 1
-3 -4 -8 -0 -2 -5 -17 -18 -27 -21 -1 0 1 1 1 0 -0 0 0 1 1 1 2 3 2 3 4 4 2 -0 -1 -1 -0 1 1 1 2 2 1 2 2 3 3 2 2 1 1
-3 -3 -5 -1 -1 -5 -13 -7 -11 -18 -7 0 0 1 1 1 0 1 1 1 2 2 2 3 2 2 3 2 2 0 -0 -0 -0 0 -0 2 3 3 4 2 3 0 1 1 1 1 0
-3 -3 -5 -3 -1 -3 -8 -5 -5 -3 -15 -1 -0 -0 0 1 0 0 2 2 2 2 2 3 3 3 3 3 3 4 4 3 2 1 2 1 3 3 4 4 2 2 3 3 3 3 1
-2 -1 -3 -2 -1 -1 -5 -4 -5 -2 -5 -9 -2 -1 -0 1 -1 1 1 2 1 1 1 3 3 3 3 2 3 4 4 3 6 5 2 3 2 4 5 6 5 1 2 2 1 4 1
-1 -2 -2 -3 -2 -0 -2 -7 -3 -4 -3 -6 -7 -10 -2 -0 -0 1 1 2 2 1 0 1 3 2 3 2 3 3 2 1 5 5 6 6 6 6 5 6 4 0 -1 2 5 3 1
-2 -3 -3 -2 -3 -1 -1 -2 -6 -4 -4 -4 -4 -5 -6 -5 -6 -5 0 2 2 2 1 2 3 2 2 3 3 3 1 2 3 3 3 4 5 6 4 6 5 0 3 4 2 1 1
-3 -4 -3 -3 -4 -1 -1 -1 -2 -5 -3 -4 -4 -4 -4 -4 -9 -12 -14 -9 -2 -0 3 3 1 1 2 1 1 1 3 2 1 4 1 5 2 3 2 2 -1 -0 -0 1 0 1 1
Wind_Speed
22 21 25 26 27 25 28 27 29 29 27 24 24 25 24 22 20 19 20 19 19 21 18 18 17 16 17 8 22 3 2 9 27 29 28 23 23 15 6 8 6 4 2 11 11 9 7
22 24 26 27 30 27 29 27 29 28 27 26 22 23 22 20 19 17 17 16 16 14 14 17 14 18 13 8 18 24 8 14 31 32 31 25 16 14 12 6 6 7 10 7 5 8 6
23 25 27 26 27 28 31 29 28 28 25 24 23 22 21 19 18 16 16 17 15 14 14 13 13 15 17 15 8 9 11 16 31 33 33 26 17 11 9 4 11 5 3 2 7 5 5
22 26 28 28 25 29 32 30 29 27 25 26 23 20 21 22 21 17 17 14 16 14 12 10 7 11 9 22 15 9 11 18 27 29 30 27 11 11 3 6 4 6 3 2 3 8 6
23 24 28 30 26 30 31 31 28 26 26 26 25 21 22 19 17 16 15 20 18 12 10 8 8 8 3 9 20 8 11 22 22 21 22 23 15 7 4 6 4 2 4 4 5 7 3
24 25 29 30 29 31 31 29 28 27 24 27 25 23 23 15 15 16 15 25 10 10 5 4 7 3 5 7 20 14 10 17 23 24 17 19 10 5 3 4 6 6 2 2 5 1 2
25 27 29 30 28 30 30 30 29 30 28 27 27 25 18 14 15 17 19 16 1 3 9 7 5 4 5 10 20 13 13 16 15 22 9 14 6 15 10 5 3 6 4 4 3 0 3
24 25 29 30 30 29 29 30 30 30 30 27 25 22 16 16 17 17 13 2 2 2 2 14 8 18 2 20 12 15 15 8 6 5 7 7 8 7 8 8 6 4 4 2 3 1 1
22 24 27 29 29 28 29 31 30 31 33 31 29 25 21 20 21 18 7 2 5 3 2 4 5 9 7 21 6 12 12 5 5 4 11 6 4 10 8 8 7 2 3 3 2 4 1
25 26 27 29 28 28 29 30 31 34 36 31 27 20 15 12 6 7 3 10 7 6 4 1 2 3 12 14 3 13 11 2 2 8 12 3 2 4 5 6 4 3 2 2 3 3 3
23 24 28 27 26 28 28 31 32 33 30 27 24 20 11 10 8 7 4 4 8 3 5 2 1 13 11 7 15 5 5 4 4 9 3 2 4 10 7 4 7 1 3 4 3 3 3
22 24 26 26 25 28 29 30 25 28 25 25 18 16 12 14 13 10 7 8 5 4 5 0 2 7 6 3 4 7 3 7 8 9 11 4 2 3 3 5 2 8 5 5 4 2 2
20 23 26 26 27 27 28 28 26 22 20 20 15 15 17 15 16 13 6 1 3 5 1 3 4 6 10 5 5 4 2 3 3 5 3 4 2 1 5 6 4 3 5 2 4 3 4
20 22 26 27 25 25 27 27 26 18 16 15 15 15 14 13 8 5 8 2 8 4 5 6 11 13 6 5 5 3 3 3 6 5 3 3 2 1 1 3 5 2 4 4 4 1 3
19 22 25 28 31 25 27 26 25 20 14 10 13 14 14 14 10 8 5 5 3 3 1 9 9 7 5 6 4 4 3 3 2 3 5 4 3 1 3 2 3 3 2 2 5 2 3
19 22 24 25 31 26 25 25 23 19 17 16 14 11 17 18 12 7 3 6 3 2 2 5 5 1 3 3 3 2 1 1 4 2 2 3 4 2 2 4 8 3 6 3 3 2 3
19 19 26 25 28 28 24 24 21 19 18 18 13 4 20 13 10 8 4 3 3 6 3 4 3 4 4 4 3 4 3 2 2 3 6 4 4 1 2 1 6 2 2 5 4 2 3
20 18 23 27 26 28 25 22 22 18 17 17 8 3 18 10 6 3 3 4 4 4 3 4 4 5 4 3 3 2 6 1 5 7 4 1 4 3 1 1 1 2 4 4 4 3 2
19 17 21 27 26 27 28 22 21 19 16 14 5 5 13 10 3 3 3 3 2 4 4 2 2 3 1 4 4 3 3 2 9 3 5 4 2 3 3 4 3 3 4 4 4 3 5
16 17 19 26 27 26 29 26 20 17 13 8 3 3 7 9 6 3 4 3 3 2 2 4 3 3 4 3 4 4 2 3 8 6 7 4 3 4 5 4 3 2 4 5 5 3 3
16 17 17 23 26 28 27 26 22 19 10 4 5 2 2 3 3 4 2 2 2 4 5 3 4 2 5 3 2 3 2 2 4 5 4 3 3 2 4 4 3 4 4 7 7 5 6
15 18 17 21 24 28 27 25 23 19 10 5 3 1 1 3 8 4 4 5 4 2 2 2 5 1 2 4 5 6 6 2 3 3 3 1 3 1 3 2 5 5 8 9 9 6 10
17 20 18 18 22 25 26 23 21 18 14 7 5 4 2 2 2 2 2 4 4 3 5 6 3 2 4 1 1 6 3 8 7 7 3 4 5 2 3 4 5 5 8 13 5 5 9
17 20 19 16 20 23 24 19 19 16 13 9 7 4 3 3 1 3 3 2 3 3 1 4 4 2 3 9 10 11 10 10 8 3 5 4 4 2 3 4 1 5 4 9 11 5 11
16 22 18 12 17 20 21 16 16 16 12 5 7 3 3 3 4 6 2 3 1 2 2 1 2 2 6 1 3 3 1 2 1 2 3 3 4 2 1 3 6 3 4 5 6 4 8
17 18 15 10 15 17 19 15 15 13 13 7 4 3 2 3 3 5 4 3 2 1 3 1 3 4 4 2 2 3 4 4 3 3 3 4 4 3 3 2 3 3 3 4 3 1 2
16 16 13 12 11 14 17 15 13 11 13 12 6 8 2 4 6 3 4 4 2 1 2 1 3 3 3 2 2 3 3 4 5 6 4 4 3 4 4 3 6 6 4 4 1 4 4
18 14 14 14 10 11 14 16 15 10 11 11 10 9 7 5 16 17 10 6 5 3 2 2 3 1 2 3 3 3 3 4 2 4 6 7 7 4 3 3 7 5 5 4 3 7 8
18 14 14 12 13 9 12 13 14 14 11 13 12 12 14 10 13 25 28 23 25 22 6 4 2 4 7 3 1 2 2 1 3 3 0 4 5 5 7 5 3 6 2 10 14 9 8
Wind_Direction
342 330 331 334 334 331 328 330 328 325 325 322 326 321 318 314 307 304 300 293 280 277 279 290 298 265 252 205 223 152 183 194 182 186 189 179 172 173 166 168 141 168 193 212 234 248 268
339 334 336 336 331 328 330 330 326 325 326 323 320 320 324 322 318 314 305 297 291 287 279 284 295 247 269 220 239 240 284 197 183 185 187 186 173 173 174 193 166 197 202 231 243 249 260
338 339 335 334 333 325 330 328 328 330 326 327 325 322 323 324 322 315 310 307 295 289 281 284 282 243 266 228 224 239 227 197 183 187 185 183 162 166 156 123 189 142 104 275 247 225 238
342 338 334 333 334 330 332 331 330 331 328 328 325 320 327 320 317 317 316 313 306 284 277 285 269 236 240 216 230 205 191 179 182 190 191 180 179 170 158 131 85 123 91 218 279 169 229
342 339 336 337 335 335 334 334 333 332 331 327 326 322 321 307 309 318 326 317 310 281 265 260 250 263 228 206 206 196 202 191 178 177 185 181 176 177 148 126 96 89 179 191 314 197 167
343 340 338 343 339 337 337 335 338 336 330 326 325 320 320 307 311 316 318 326 304 271 248 186 211 274 231 205 175 216 210 188 170 164 147 173 179 139 108 179 189 153 169 187 206 296 160
342 343 342 343 339 340 341 340 340 336 330 322 323 317 309 299 307 319 321 338 79 77 173 196 217 230 128 147 177 206 172 169 169 158 189 175 170 192 177 160 138 125 141 177 242 22 306
344 345 345 346 341 347 343 340 341 336 335 328 318 323 308 296 302 309 322 315 144 138 308 232 279 231 90 145 175 185 166 183 140 130 84 146 202 163 154 153 125 120 133 225 281 353 290
345 347 348 350 347 345 348 349 344 339 336 327 319 312 305 298 299 288 263 182 176 129 153 77 247 192 141 162 121 155 167 141 107 93 138 166 123 148 150 170 154 112 148 191 219 333 63
349 350 349 350 349 350 349 351 348 346 343 339 334 325 323 324 10 111 146 174 195 176 89 81 297 103 139 143 51 141 156 127 79 101 101 50 306 137 162 156 116 168 193 87 71 38 265
352 353 351 353 353 349 352 356 351 353 359 5 11 7 15 45 74 96 117 166 176 214 88 97 72 134 143 155 136 160 130 59 112 120 94 86 132 143 163 133 114 179 97 103 86 88 13
354 353 352 357 352 353 357 356 358 360 4 359 20 34 51 64 79 91 106 118 148 33 73 90 139 141 96 59 64 115 94 80 95 52 83 80 156 106 96 105 168 151 86 59 58 84 16
358 352 353 3 359 355 358 0 3 2 4 6 28 35 61 75 90 91 85 6 19 63 266 49 89 124 110 86 86 69 47 73 109 124 79 89 357 51 111 95 62 95 77 346 354 15 219
357 352 355 1 359 356 357 5 2 3 5 9 26 39 49 52 58 23 355 50 56 26 59 132 106 78 81 99 80 67 124 78 36 79 99 136 143 39 39 119 167 110 139 159 220 205 285
359 352 355 2 2 6 3 4 9 4 354 16 10 9 21 13 360 351 341 44 49 355 54 114 76 72 51 44 75 98 360 106 99 50 119 117 46 18 46 102 96 185 149 171 109 72 47
359 348 357 356 6 4 9 2 8 7 352 335 335 338 3 350 343 351 44 87 60 170 58 65 88 123 102 108 84 68 29 97 99 60 105 181 87 25 109 106 46 127 143 75 10 117 265
356 349 359 354 2 6 7 2 7 5 360 354 343 12 360 350 7 51 58 43 340 359 45 86 145 105 122 136 118 160 187 9 117 125 70 130 98 12 82 179 169 113 124 51 104 99 152
351 355 352 357 356 2 3 6 0 359 359 358 15 34 5 25 45 20 28 336 333 314 4 70 93 84 105 117 91 122 188 213 161 143 102 49 115 147 138 350 222 147 162 143 130 220 99
350 357 349 359 355 355 1 1 1 1 0 10 11 351 19 36 65 357 335 322 312 336 358 63 86 71 127 128 122 148 183 145 155 132 152 175 43 61 6 1 5 194 188 134 109 99 200
349 355 346 0 356 353 354 3 0 1 357 14 12 26 14 53 49 3 1 339 357 330 359 55 96 98 100 82 37 163 112 5 180 169 121 98 103 145 184 206 146 198 185 175 132 136 189
347 346 345 353 359 353 350 356 359 2 4 9 48 99 37 337 348 338 282 277 28 4 353 40 52 133 127 106 90 99 96 101 70 152 83 103 120 125 253 233 180 205 188 186 196 179 180
351 347 345 344 352 354 345 347 1 2 14 33 73 52 160 261 301 322 342 360 21 345 357 3 119 264 98 143 176 185 140 152 158 42 112 108 132 91 299 339 213 245 227 211 212 222 255
340 347 337 338 343 350 342 345 353 8 17 56 45 33 307 286 357 23 317 315 353 340 41 47 85 79 68 86 249 205 128 142 158 144 134 138 132 101 280 337 314 293 227 198 179 200 211
327 337 331 335 332 344 341 345 356 13 21 37 34 19 358 291 304 189 315 318 349 5 35 10 50 85 148 125 90 85 94 93 116 93 153 128 107 112 293 3 348 239 156 176 200 205 211
321 322 322 324 326 340 341 344 356 6 17 35 29 19 10 293 315 293 254 256 294 359 60 85 49 110 152 123 61 113 101 60 174 145 138 130 124 157 244 256 283 281 158 140 174 257 203
317 318 316 314 324 339 344 337 349 5 360 359 359 350 322 328 268 308 315 306 220 200 342 222 140 145 154 86 89 169 190 183 180 128 64 89 116 140 184 262 252 248 125 149 132 30 137
315 317 317 316 320 326 346 346 340 348 350 4 349 345 288 278 280 275 247 287 289 196 169 258 178 167 165 108 141 188 242 191 172 185 169 158 167 204 212 268 284 246 198 134 104 224 295
310 310 310 311 294 321 332 344 337 335 335 337 337 347 351 268 269 256 252 243 292 260 181 163 110 234 73 162 174 214 182 226 160 166 175 181 181 188 178 221 259 158 102 156 228 322 306
307 301 304 307 305 307 332 319 335 330 321 315 318 326 321 302 277 282 275 258 250 243 290 246 248 174 188 105 180 122 199 148 168 225 172 200 185 182 186 212 235 194 215 304 287 284 302
Height
1521 1517 1513 1509 1504 1499 1494 1490 1486 1481 1477 1472 1468 1464 1460 1456 1454 1452 1451 1450 1448 1449 1450 1450 1450 1450 1453 1451 1448 1446 1447 1450 1454 1462 1467 1471 1476 1481 1484 1487 1489 1491 1492 1493 1493 1494 1495
1520 1516 1510 1506 1502 1497 1491 1486 1482 1477 1473 1468 1464 1460 1456 1453 1451 1449 1447 1446 1444 1445 1445 1446 1447 1448 1448 1445 1445 1446 1448 1448 1451 1458 1464 1469 1473 1479 1483 1484 1487 1487 1490 1491 1491 1493 1493
1518 1514 1508 1504 1499 1493 1488 1483 1478 1473 1468 1464 1460 1456 1453 1450 1448 1446 1444 1442 1441 1441 1441 1442 1443 1445 1442 1442 1441 1443 1446 1445 1451 1456 1461 1469 1474 1477 1480 1483 1485 1487 1490 1491 1489 1490 1492
1515 1511 1506 1501 1495 1490 1484 1479 1474 1469 1464 1460 1457 1453 1451 1448 1445 1442 1440 1439 1437 1437 1437 1438 1439 1441 1437 1438 1441 1442 1444 1446 1452 1457 1462 1468 1473 1476 1479 1481 1484 1489 1492 1497 1487 1488 1489
1512 1509 1504 1498 1493 1487 1481 1475 1469 1465 1461 1457 1452 1449 1447 1445 1441 1439 1437 1435 1433 1433 1434 1436 1438 1438 1434 1434 1439 1442 1444 1447 1451 1458 1464 1469 1473 1476 1480 1483 1489 1490 1498 1496 1490 1485 1486
1511 1506 1502 1496 1490 1484 1478 1472 1467 1462 1457 1452 1448 1445 1442 1440 1438 1436 1433 1431 1428 1430 1432 1435 1436 1439 1433 1432 1436 1441 1445 1447 1451 1457 1463 1469 1472 1475 1480 1481 1490 1488 1492 1493 1493 1487 1487
1510 1505 1500 1495 1488 1482 1476 1470 1463 1459 1454 1448 1444 1440 1437 1436 1435 1432 1430 1428 1430 1432 1431 1430 1432 1431 1430 1433 1439 1442 1445 1447 1448 1456 1459 1464 1466 1467 1474 1478 1481 1485 1490 1492 1489 1487 1487
1508 1502 1498 1493 1487 1481 1474 1468 1462 1456 1449 1445 1440 1436 1433 1431 1430 1430 1429 1428 1428 1431 1430 1430 1431 1431 1432 1435 1440 1443 1445 1448 1447 1448 1453 1467 1465 1468 1473 1476 1481 1484 1488 1491 1489 1488 1490
1505 1500 1495 1491 1485 1479 1473 1467 1459 1453 1446 1440 1434 1430 1428 1426 1424 1424 1426 1428 1428 1428 1430 1432 1431 1431 1433 1437 1440 1442 1445 1446 1448 1453 1457 1462 1465 1466 1470 1476 1482 1486 1487 1491 1492 1492 1493
1507 1502 1495 1490 1484 1478 1472 1465 1457 1450 1443 1434 1429 1425 1422 1421 1421 1419 1424 1426 1427 1428 1437 1435 1431 1432 1435 1437 1441 1443 1446 1449 1451 1456 1462 1469 1468 1468 1471 1475 1480 1487 1486 1488 1492 1494 1500
1502 1501 1494 1489 1483 1477 1471 1464 1457 1450 1443 1436 1430 1425 1421 1420 1421 1424 1427 1427 1428 1428 1437 1437 1434 1435 1435 1440 1441 1445 1448 1449 1452 1456 1458 1472 1469 1472 1475 1478 1481 1488 1488 1492 1496 1502 1503
1503 1500 1492 1487 1482 1476 1470 1464 1457 1452 1446 1441 1434 1429 1426 1425 1425 1427 1428 1429 1430 1439 1429 1435 1433 1434 1437 1440 1443 1448 1451 1452 1454 1459 1464 1471 1473 1473 1476 1481 1484 1488 1491 1499 1505 1508 1523
1503 1499 1493 1486 1482 1476 1470 1464 1458 1453 1449 1444 1439 1437 1433 1431 1431 1430 1432 1431 1436 1436 1439 1437 1434 1434 1437 1442 1446 1449 1454 1457 1459 1468 1470 1478 1477 1475 1475 1482 1485 1488 1494 1518 1517 1530 1513
1503 1499 1493 1486 1480 1475 1469 1464 1460 1455 1451 1448 1445 1444 1439 1435 1434 1433 1431 1434 1436 1431 1430 1436 1434 1439 1443 1446 1453 1455 1457 1459 1459 1462 1472 1478 1482 1476 1477 1479 1484 1489 1493 1509 1499 1512 1512
1502 1498 1494 1487 1481 1474 1469 1464 1461 1457 1454 1452 1449 1446 1442 1437 1436 1434 1433 1437 1442 1439 1437 1438 1440 1447 1453 1452 1455 1461 1460 1461 1462 1463 1472 1485 1485 1480 1479 1480 1483 1492 1502 1499 1512 1520 1530
1502 1499 1494 1488 1482 1476 1470 1466 1462 1458 1455 1452 1450 1446 1444 1439 1437 1435 1435 1437 1441 1440 1439 1442 1451 1452 1458 1458 1461 1461 1461 1461 1463 1464 1464 1474 1490 1481 1482 1481 1486 1486 1494 1508 1521 1522 1511
1502 1499 1494 1490 1483 1477 1472 1467 1461 1459 1454 1452 1450 1449 1446 1442 1438 1436 1444 1447 1444 1442 1441 1443 1449 1452 1458 1459 1461 1466 1465 1463 1462 1466 1465 1473 1481 1486 1482 1484 1489 1493 1495 1502 1507 1517 1523
1502 1499 1494 1490 1484 1478 1473 1468 1463 1458 1455 1452 1450 1452 1450 1444 1445 1449 1449 1451 1449 1446 1443 1443 1446 1449 1455 1458 1461 1462 1465 1462 1462 1464 1469 1471 1481 1495 1485 1486 1485 1486 1491 1497 1514 1521 1519
1501 1498 1495 1490 1485 1479 1474 1470 1465 1460 1456 1452 1451 1453 1452 1448 1455 1456 1453 1452 1450 1447 1446 1445 1447 1448 1452 1457 1462 1463 1462 1462 1462 1464 1468 1471 1486 1506 1492 1491 1488 1488 1490 1492 1498 1504 1524
1501 1497 1495 1490 1486 1481 1475 1471 1466 1462 1458 1455 1455 1457 1455 1455 1457 1458 1457 1455 1451 1448 1448 1447 1449 1449 1452 1456 1458 1462 1462 1462 1462 1464 1466 1468 1482 1488 1497 1488 1488 1494 1488 1489 1495 1512 1505
1501 1497 1495 1490 1486 1482 1476 1472 1467 1463 1459 1458 1458 1463 1464 1465 1459 1461 1460 1456 1453 1452 1449 1448 1450 1451 1452 1458 1458 1461 1463 1463 1465 1465 1468 1471 1487 1490 1483 1482 1485 1484 1482 1488 1494 1490 1496
1500 1497 1494 1490 1486 1482 1478 1473 1468 1464 1460 1459 1461 1463 1463 1461 1460 1459 1457 1455 1454 1452 1451 1449 1452 1451 1451 1454 1457 1461 1462 1463 1463 1468 1470 1473 1489 1489 1490 1480 1483 1485 1483 1484 1484 1482 1481
1498 1497 1493 1490 1486 1482 1479 1474 1470 1466 1462 1461 1463 1463 1464 1460 1459 1459 1460 1456 1454 1451 1451 1451 1451 1451 1453 1455 1454 1454 1455 1458 1460 1466 1471 1473 1484 1489 1496 1484 1482 1480 1469 1469 1470 1471 1469
1496 1495 1492 1490 1486 1483 1480 1475 1471 1468 1466 1466 1466 1465 1465 1462 1460 1458 1457 1456 1454 1454 1453 1453 1453 1453 1456 1455 1455 1456 1458 1460 1462 1465 1466 1474 1479 1484 1482 1484 1491 1458 1455 1456 1458 1459 1462
1494 1492 1490 1488 1486 1483 1479 1476 1473 1471 1468 1468 1467 1467 1466 1464 1462 1458 1456 1455 1454 1454 1453 1454 1454 1455 1456 1457 1460 1460 1462 1463 1464 1465 1466 1467 1476 1482 1482 1475 1467 1449 1454 1456 1456 1453 1452
1491 1489 1487 1486 1485 1483 1479 1477 1474 1472 1469 1468 1467 1467 1467 1467 1461 1461 1458 1455 1455 1454 1455 1454 1455 1455 1457 1459 1462 1464 1471 1465 1466 1468 1468 1469 1471 1476 1479 1474 1471 1451 1448 1448 1449 1455 1447
1489 1487 1485 1484 1483 1481 1479 1476 1474 1473 1470 1469 1467 1467 1467 1466 1460 1459 1459 1457 1454 1453 1454 1453 1454 1455 1456 1461 1464 1466 1470 1461 1460 1461 1466 1469 1470 1471 1475 1469 1461 1448 1446 1448 1453 1457 1446
1486 1485 1483 1482 1482 1480 1478 1476 1474 1472 1471 1470 1468 1467 1467 1464 1456 1455 1455 1455 1454 1453 1453 1452 1455 1454 1457 1459 1461 1462 1465 1461 1461 1456 1459 1461 1465 1465 1469 1468 1465 1444 1448 1451 1448 1445 1444
1483 1482 1481 1480 1480 1479 1477 1474 1473 1471 1470 1469 1468 1466 1465 1463 1454 1450 1448 1449 1450 1452 1454 1451 1448 1446 1448 1456 1459 1460 1459 1461 1461 1460 1456 1460 1455 1460 1458 1456 1443 1444 1443 1445 1443 1443 1442